Flag for U.S.A. Weather past 2 weeks in Oberlin, Ohio, U.S.A.

Now
82 °F

Sunny.


Feels Like: 83 °F
Forecast: 64 / 87 °F
Wind: 5 mph from Southeast

Location: Lorain County Regional Airport

Current Time: Jul 28, 2015 at 11:59:43 AM

Latest Report: Jul 28, 2015 at 10:53 AM


Visibility: 10 mi

Pressure: 30.02 "Hg

Humidity: 55%

Dew point: 64 °F

Location of OberlinLocation

Historic Weather in Oberlin — Graph

°F

Oberlin temperature yesterday

Maximum temperature yesterday: 85 °F (at 12:53 PM)
Minimum temperature yesterday: 58 °F (at 5:53 AM)
Average temperature yesterday: 73 °F

Past Weeks' High & Low Weather Summary

 TemperatureHumidityPressure
High87 °F (Jul 18, 3:53 PM)97% (Jul 16, 12:53 AM)30.11 "Hg (Jul 16, 12:53 AM)
Low51 °F (Jul 16, 5:53 AM)27% (Jul 23, 3:53 PM)29.50 "Hg (Jul 14, 2:53 PM)
Average72 °F74%29.90 "Hg
* Reported Jul 13 10:53 AM — Jul 28 10:53 AM, Oberlin, Weather by CustomWeather, © 2015

Note: Actual official high and low records may vary slightly from our data, if they occured in-between our weather recording intervals... More about our weather records

Advertising

Oberlin weather history for previous 24 hours

 ConditionsComfort  
Time TempWeatherWind HumidityBarometerVisibility
10:53 AM
Tue, Jul 28
82 °FSunny.5 mph55%30.02 "Hg10 mi
9:53 AM79 °FSunny.No wind60%30.03 "Hg10 mi
8:53 AM75 °FSunny.No wind71%30.04 "Hg10 mi
7:53 AM67 °FSunny.No wind90%30.04 "Hg8 mi
6:53 AM61 °FFog.No wind97%30.03 "Hg4 mi
5:53 AM61 °FClear.No wind97%30.02 "Hg7 mi
4:53 AM61 °FClear.No wind93%30.01 "Hg8 mi
3:53 AM63 °FClear.No wind93%30.00 "Hg8 mi
2:53 AM64 °FFog.No wind94%30.01 "Hg6 mi
1:53 AM65 °FClear.No wind94%30.02 "Hg10 mi
12:53 AM66 °FClear.No wind90%30.03 "Hg10 mi
11:53 PM
Mon, Jul 27
67 °FClear.No wind87%30.03 "Hg10 mi
10:53 PM70 °FClear.3 mph81%30.02 "Hg10 mi
9:53 PM72 °FClear.5 mph71%30.01 "Hg10 mi
8:53 PM75 °FSunny.6 mph62%29.99 "Hg10 mi
7:53 PM79 °FSunny.7 mph50%29.98 "Hg10 mi
6:53 PM82 °FSunny.9 mph49%29.98 "Hg10 mi
4:53 PM85 °FSunny.9 mph48%29.99 "Hg10 mi
3:53 PM85 °FSunny.9 mph51%30.00 "Hg10 mi
2:53 PM85 °FSunny.9 mph55%30.00 "Hg10 mi
1:53 PM83 °FPassing clouds.10 mph63%30.01 "Hg10 mi
12:53 PM85 °FPassing clouds.6 mph45%30.02 "Hg10 mi
11:53 AM83 °FSunny.5 mph55%30.03 "Hg10 mi
Weather by CustomWeather, © 2015

See weather overviewHow to use our weather pages